Terminal Aerodrome Forecast
Issued by NWS Omaha/Valley, NE

Home | Current Version | Previous Version | Graphics & Text | Print | Product List | Glossary On
Versions: 1 2 3 4 5 6 7 8 9 10 11 12 13 14 15 16 17 18 19 20 21 22 23 24 25 26 27 28 29 30
000
FTUS43 KOAX 260520
TAFOFK
TAF
KOFK 260520Z 2606/2706 10003KT P6SM BKN150
     FM260800 08003KT 4SM BR BKN120
     FM261500 11008KT P6SM BKN120
      TEMPO 2618/2622 4SM -TSRA OVC050CB
     FM262300 36010KT P6SM SCT120=

USA.gov is the U.S. government's official web portal to all federal, state and local government web resources and services.